Location: *
(43.4667°N, 11.6833°E)
Time: 01:40:40
(UTC+00:00)

Cosmos 2285 Rocket - Pass Details

Date: 19 July 2019
Orbit: 971 x 999 km, 74.0° (Epoch: 21 August)

Event Time Altitude Azimuth Distance (km) Brightness Sun altitude
Exits shadow 23:21:38 46° 236° (SW) 1,291 4.3 -25.8°
Maximum altitude 23:23:24 63° 294° (WNW) 1,082 4.2 -25.8°
Drops below altitude 10° 23:29:39 10° 15° (NNE) 2,724 7.3 -25.7°
Sets 23:32:14 0° 19° (NNE) 3,674 8.2 -25.7°
